Погода в Старом Захаркине

Россия / Пензенская область     52°53′57″N   45°14′04″E
темп.,
°C
ветер,
м/с
пор.,
м/с
влажн.,
%
обл.,
%
осадки,
мм/ч
давл.,
гПа
погр.,
м
20 сентября, пн
пн2000:00+8вюв5950100 0.1 1022405
03:00+8вюв61346100 0.1 1021509
06:00+8вюв71347100 0.0 1021550
09:00+9юв71245100 0.1 1022804
12:00+9вюв71258100 0.8 1021913
15:00+7вюв51281100 3.6 1021801
18:00+7вюв71483100 3.6 1020813
21:00+7вюв71587100 7.6 1020736
21 сентября, вт
вт2100:00+7вюв71578100 1.0 1019688
03:00+7вюв61379100 2.0 1018614
06:00+7вюв61390100 0.3 1017558
09:00+8вюв71184100 0.9 1017566
12:00+13юв6866100 0.1 1016807
15:00+16вюв6856100 0.1 10141058
18:00+13в51160100 0.1 1013413
21:00+9вюв51282100 1.4 1013373
22 сентября, ср
ср2200:00+11юв61295100 8.2 1011455
03:00+11ююв4997100 9.8 1011439
06:00+10вюв4797100 1.6 1010285
09:00+10юв2698100 5.8 1011291
12:00+15ю457599 0.6 1010892
15:00+15ююз4661100 1.1 10111156
18:00+9юз487738 0.0 1014211
21:00+7юз11875 0.0 101610
23 сентября, чт
чт2300:00+6юв118643 0.0 101710
03:00+6в348284 0.0 101767
06:00+6в238274 0.0 101757
09:00+9всв2879100 0.0 1017281
12:00+10в3893100 0.6 1016347
15:00+11ююв51293100 2.9 1015702
18:00+10юв6138698 0.1 1015476
21:00+9юв61389100 0.1 1014431
24 сентября, пт
пт2400:00+8юв4118299 0.0 1014339
03:00+8юв3685100 0.0 1013185
06:00+7вюв2285100 0.0 101226
09:00+8в1186100 0.8 101292
12:00+9юв4991100 2.8 1010477
15:00+9юв61390100 4.7 1009554
18:00+8юз1288100 0.3 100970
21:00+8ююз2489100 0.4 1007138